sat.trackr.live / text

‹ back to catalog

AEROCUBE 18A

NORAD 63220 · 2025-052L

PAYLOAD ACTIVE UNKNOWN

§ Identity

Operator
Country
US
Launch date
2025-03-15
Launch site
AFWTR
Launch vehicle
Mass (kg)
RCS (m²)

External: N2YO · Heavens-Above · Gunter

§ Orbital elements

Epoch: 2026-05-24T23:41:09.786048Z

Period
94.48 min
Inclination
97.3995°
Eccentricity
0.0003657
Mean motion
15.24147605 rev/d
Perigee alt
490.8 km
Apogee alt
495.9 km
Semi-major
6,871.5 km
B*
2.1780e-4
RAAN
38.7653°
Arg perigee
177.6830°
Mean anomaly
182.4425°
Rev number
6,636

§ Raw data

AEROCUBE 18A1 63220U 25052L   26144.98691882  .00005228  00000+0  21780-3 0  99922 63220  97.3995  38.7653 0003657 177.6830 182.4425 15.24147605 66364

JSON: /api/v1/satellites/63220 · /tle

For live sub-satellite position, see the globe view (requires WebGL).

§ Visibility from observer

Set your observer location to see the next 7 days of passes ≥ 10°. The values pass through the URL so the page stays shareable.

No JS? Fill the form by hand. The geolocation button needs JavaScript.

§ Radio — SatNOGS DB

ModeDescriptionDownlinkUplink
OQPSK Mode U - OQPSK 1Mbps 2.225 GHz

1 transmitter · refreshed weekly from db.satnogs.org